User: anonymous   Login
Location: Unspecified
(0.0000°N, 0.0000°E)
Time: 00:16:16
(UTC+02:00)
Language:

Cosmos 1703 - Orbit

View from above orbital plane
View from above orbital plane
View from above satellite
View from above satellite

Ground track
Ground track

The orbit data is extracted from the following two-line orbital elements,

1 16262U 85108A   15239.87971697  .00001334  00000-0  83155-4 0  9990
2 16262 082.4871 176.6808 0010393 017.8609 342.2983 15.08706165619424
Epoch (UTC): 27 August 2015 21:06:47
Eccentricity: 0.0010393
inclination: 82.4871°
perigee height: 533 km
apogee height: 547 km
right ascension of ascending node: 176.6808°
argument of perigee: 17.8609°
revolutions per day: 15.08706165
mean anomaly at epoch: 342.2983°
orbit number at epoch: 61942

The dashed part of the orbit path shows where the satellite is in the earth's shadow,  

DLR